Probability
0 0 0 0 0 0 0 0 0 0 0 0 0 0 0 0 0 0 0 0 0 0 0 0 0 0 0 0 0 0 0 0 0 0 0 0 0 0 0 0 0 0 0
0 0 0 0 0 0 0 0 0 0 0 0 0 0 0 0 0 0 0 0 0 0 0 0 0 0 0 0 0 0 0 0 0 0 0 0 0 0 0 0 0 0 0
0 0 0 0 0 0 0 0 0 0 0 0 0 0 0 0 0 0 0 0 0 0 0 0 0 0 0 0 0 0 0 0 0 0 0 0 0 0 0 0 0 0 0
0 0 0 0 0 0 0 0 0 0 0 0 0 0 0 0 0 0 0 0 0 0 0 0 0 0 0 0 0 0 0 0 0 0 0 0 0 0 0 0 0 0 0
0 0 0 0 0 0 0 0 0 0 0 0 0 0 0 0 0 0 0 0 0 0 0 0 0 0 0 0 0 0 0 0 0 0 0 0 0 0 0 0 0 0 0
0 0 0 0 0 0 0 0 0 0 0 0 0 0 0 0 0 0 0 0 0 0 0 0 0 0 0 0 0 0 0 0 0 0 0 0 0 0 0 0 0 0 0
0 0 0 0 0 0 0 0 0 0 0 0 0 0 0 0 0 0 0 0 0 0 0 0 0 0 0 0 0 0 0 0 0 0 0 0 0 0 0 0 0 0 0
0 0 0 0 0 0 0 0 0 0 0 0 0 0 0 0 0 0 0 0 0 0 0 0 0 0 0 0 0 0 0 0 0 0 0 0 0 0 0 0 0 0 0
0 0 0 0 0 0 0 0 0 0 0 0 0 0 0 0 0 0 0 0 0 0 0 0 0 0 0 0 0 0 0 0 0 0 0 0 0 0 0 0 0 0 0
0 0 0 0 0 0 0 0 0 0 0 0 0 0 0 0 0 0 0 0 0 0 0 0 0 0 0 0 0 0 0 0 0 0 0 0 0 0 0 0 0 0 0
0 0 0 0 0 0 0 0 0 0 0 0 0 0 0 0 0 0 0 0 0 0 0 0 0 0 0 0 0 0 0 0 0 0 0 0 0 0 0 0 0 0 0
0 0 0 0 0 0 0 0 0 0 0 0 0 0 0 0 0 0 0 0 0 0 0 0 0 0 0 0 0 0 0 0 0 0 0 0 0 0 0 0 0 0 0
0 0 0 0 0 0 0 0 0 0 0 0 0 0 0 0 0 0 0 0 0 0 0 0 0 0 0 0 0 0 0 0 0 0 0 0 0 0 0 0 0 0 0
0 0 0 0 0 0 0 0 0 0 0 0 0 0 0 0 0 0 0 0 0 0 0 0 0 0 0 0 0 0 0 0 0 0 0 0 0 0 0 0 0 0 0
0 0 0 0 0 0 0 0 0 0 0 0 0 0 0 0 0 0 0 0 0 0 0 0 0 0 0 0 0 0 0 0 0 0 0 0 0 0 0 0 0 0 0
0 0 0 0 0 0 0 0 0 0 0 0 0 0 0 0 0 0 0 0 0 0 0 0 0 0 0 0 0 0 0 0 0 0 0 0 0 0 0 0 0 0 0
0 0 0 0 0 0 0 0 0 0 0 0 0 0 0 0 0 0 0 0 0 0 0 0 0 0 0 0 0 0 0 0 0 0 0 0 0 0 0 0 0 0 0
0 0 0 0 0 0 0 0 0 0 0 0 0 0 0 0 0 0 0 0 0 0 0 0 0 0 0 0 0 0 0 0 0 0 0 0 0 0 0 0 0 0 0
0 0 0 0 0 0 0 0 0 0 0 0 0 0 0 0 0 0 0 0 0 0 0 0 0 0 0 0 0 0 0 0 0 0 0 0 0 0 0 0 0 0 0
0 0 0 0 0 0 0 0 0 0 0 0 0 0 0 0 0 0 0 0 0 0 0 0 0 0 0 0 0 0 0 0 0 0 0 0 0 0 0 0 0 0 0
0 0 0 0 0 0 0 0 0 0 0 0 0 0 0 0 0 0 0 0 0 0 0 0 0 0 0 0 0 0 0 0 0 0 0 0 0 0 0 0 0 0 0
0 0 0 0 0 0 0 0 0 0 0 0 0 0 0 0 0 0 0 0 0 0 0 0 0 0 0 0 0 0 0 0 0 0 0 0 0 0 0 0 0 0 0
0 0 0 0 0 0 0 0 0 0 0 0 0 0 0 0 0 0 0 0 0 0 0 0 0 0 0 0 0 0 0 0 0 0 0 0 0 0 0 0 0 0 0
0 0 0 0 0 0 0 0 0 0 0 0 0 0 0 0 0 0 0 0 0 0 0 0 0 0 0 0 0 0 0 0 0 0 0 0 0 0 0 0 0 0 0
0 0 0 0 0 0 0 0 0 0 0 0 0 0 0 0 0 0 0 0 0 0 0 0 0 0 0 0 0 0 0 0 0 0 0 0 0 0 0 0 0 0 0
0 0 0 0 0 0 0 0 0 0 0 0 0 0 0 0 0 0 0 0 0 0 0 0 0 0 0 0 0 0 0 0 0 0 0 0 0 0 0 0 0 0 0
Height
5755 5748 5740 5731 5722 5713 5703 5691 5678 5663 5646 5627 5606 5586 5567 5551 5538 5529 5524 5521 5521 5523 5530 5540 5555 5573 5594 5614 5634 5651 5666 5681 5695 5708 5720 5731 5741 5752 5762 5773 5782 5790 5799
5745 5737 5728 5719 5709 5698 5686 5673 5657 5639 5619 5597 5574 5552 5533 5517 5504 5494 5487 5485 5485 5487 5493 5502 5512 5527 5548 5570 5594 5616 5635 5652 5668 5683 5697 5710 5722 5734 5746 5757 5767 5777 5787
5735 5726 5716 5706 5695 5682 5669 5653 5634 5612 5589 5566 5544 5523 5504 5487 5473 5462 5454 5450 5449 5452 5457 5466 5477 5490 5506 5526 5551 5577 5600 5620 5639 5656 5673 5688 5702 5715 5728 5740 5752 5763 5774
5723 5713 5703 5691 5679 5665 5649 5631 5609 5585 5561 5538 5518 5498 5479 5463 5448 5435 5426 5421 5419 5419 5423 5431 5442 5456 5470 5488 5511 5536 5563 5587 5608 5627 5646 5664 5680 5695 5709 5722 5735 5748 5760
5711 5700 5688 5676 5662 5646 5627 5606 5582 5558 5535 5514 5494 5477 5458 5441 5426 5413 5402 5397 5394 5392 5394 5399 5409 5423 5440 5457 5476 5499 5525 5551 5575 5596 5617 5638 5656 5673 5689 5704 5718 5731 5745
5697 5685 5673 5659 5643 5626 5605 5582 5558 5534 5511 5490 5472 5456 5439 5420 5405 5392 5381 5375 5371 5369 5369 5372 5380 5392 5408 5426 5444 5465 5489 5515 5541 5564 5588 5610 5631 5651 5668 5684 5699 5714 5728
5684 5671 5657 5641 5624 5605 5583 5560 5537 5514 5492 5470 5452 5437 5423 5405 5388 5374 5363 5355 5350 5347 5346 5349 5355 5364 5378 5396 5415 5437 5458 5481 5506 5532 5558 5583 5606 5627 5646 5664 5680 5696 5712
5670 5656 5641 5624 5606 5585 5563 5539 5517 5496 5476 5453 5433 5416 5404 5394 5378 5362 5348 5338 5331 5326 5324 5326 5332 5341 5352 5368 5389 5409 5429 5452 5476 5502 5529 5556 5580 5603 5624 5643 5661 5678 5694
5656 5641 5625 5608 5588 5567 5544 5522 5500 5479 5461 5442 5418 5398 5381 5371 5363 5354 5338 5326 5316 5309 5305 5304 5309 5318 5329 5343 5363 5384 5406 5427 5452 5478 5504 5531 5555 5579 5601 5622 5641 5659 5676
5643 5627 5610 5592 5572 5550 5528 5506 5485 5464 5445 5429 5410 5389 5369 5352 5341 5335 5330 5317 5305 5296 5290 5287 5289 5297 5308 5322 5339 5359 5381 5404 5427 5452 5478 5504 5530 5555 5578 5600 5621 5640 5658
5630 5614 5596 5578 5557 5536 5514 5492 5472 5452 5433 5415 5398 5381 5364 5347 5330 5317 5313 5308 5298 5289 5281 5277 5276 5280 5290 5302 5318 5338 5359 5380 5403 5425 5450 5476 5502 5529 5554 5577 5600 5620 5640
5617 5601 5583 5564 5544 5522 5501 5481 5461 5442 5423 5405 5388 5371 5355 5340 5326 5312 5302 5295 5289 5283 5275 5270 5267 5269 5275 5286 5300 5318 5338 5357 5378 5400 5422 5448 5475 5503 5529 5554 5578 5601 5622
5606 5589 5571 5552 5531 5511 5491 5471 5452 5434 5415 5398 5381 5364 5348 5332 5318 5305 5295 5287 5280 5275 5269 5265 5261 5261 5265 5273 5285 5301 5318 5337 5356 5376 5398 5423 5450 5479 5508 5535 5560 5583 5605
5595 5578 5560 5541 5521 5501 5481 5462 5443 5425 5408 5391 5374 5358 5343 5328 5313 5299 5288 5280 5274 5269 5264 5260 5257 5256 5258 5264 5274 5287 5303 5321 5339 5358 5379 5403 5430 5460 5490 5517 5543 5567 5589
5585 5568 5550 5532 5512 5492 5473 5454 5436 5418 5401 5385 5369 5354 5338 5324 5310 5297 5285 5275 5268 5264 5260 5256 5253 5252 5253 5257 5264 5276 5292 5310 5326 5345 5365 5389 5415 5443 5471 5498 5524 5549 5573
5576 5559 5541 5523 5504 5484 5465 5448 5430 5413 5396 5380 5365 5350 5336 5322 5308 5295 5283 5273 5264 5259 5256 5252 5249 5248 5248 5251 5257 5268 5282 5297 5314 5333 5353 5375 5399 5425 5451 5478 5505 5531 5557
5567 5550 5533 5515 5496 5477 5459 5442 5425 5408 5392 5376 5361 5347 5333 5319 5306 5294 5282 5271 5262 5255 5252 5249 5246 5245 5244 5247 5252 5261 5274 5289 5305 5322 5340 5360 5382 5405 5431 5459 5486 5513 5540
5559 5542 5525 5507 5489 5471 5453 5437 5420 5404 5388 5373 5358 5344 5331 5317 5305 5292 5281 5270 5261 5253 5248 5245 5243 5241 5241 5243 5248 5256 5268 5281 5296 5312 5328 5346 5367 5389 5414 5441 5468 5496 5523
5551 5534 5518 5500 5483 5465 5448 5431 5416 5400 5384 5369 5355 5342 5329 5316 5304 5291 5280 5269 5260 5252 5246 5242 5240 5238 5237 5239 5243 5251 5262 5276 5290 5304 5319 5337 5356 5376 5399 5425 5451 5479 5507
5544 5527 5511 5494 5477 5460 5443 5427 5411 5396 5381 5366 5352 5339 5327 5314 5303 5291 5279 5269 5260 5252 5245 5240 5237 5235 5234 5235 5239 5247 5258 5270 5284 5297 5312 5328 5345 5365 5387 5412 5441 5468 5494
5537 5521 5504 5488 5471 5455 5438 5423 5408 5394 5379 5364 5350 5336 5324 5312 5301 5290 5279 5269 5260 5252 5245 5239 5235 5232 5231 5232 5236 5243 5254 5265 5279 5292 5306 5321 5338 5358 5377 5401 5425 5451 5478
5530 5515 5499 5482 5466 5450 5434 5418 5404 5389 5375 5361 5347 5334 5322 5311 5300 5289 5278 5268 5259 5251 5244 5238 5234 5231 5229 5230 5234 5240 5250 5261 5275 5288 5301 5315 5330 5348 5367 5389 5413 5438 5464
5523 5508 5493 5477 5461 5445 5430 5415 5400 5386 5372 5358 5345 5333 5321 5310 5299 5289 5278 5268 5258 5250 5243 5237 5233 5229 5228 5228 5232 5238 5247 5258 5270 5282 5296 5311 5325 5341 5358 5378 5400 5424 5450
5517 5502 5487 5472 5457 5442 5427 5413 5398 5384 5370 5356 5344 5331 5320 5309 5298 5288 5278 5268 5258 5250 5242 5236 5231 5228 5227 5227 5230 5236 5244 5255 5266 5279 5292 5305 5319 5334 5350 5369 5390 5414 5438
5510 5497 5483 5468 5453 5438 5424 5410 5396 5382 5368 5355 5342 5330 5319 5308 5298 5288 5278 5268 5258 5249 5241 5235 5230 5227 5226 5226 5229 5235 5243 5253 5264 5276 5288 5301 5314 5328 5344 5362 5382 5404 5428
5503 5491 5477 5463 5449 5435 5421 5407 5394 5381 5368 5355 5342 5329 5317 5306 5296 5287 5277 5268 5258 5250 5242 5235 5230 5227 5225 5225 5228 5234 5241 5250 5261 5273 5285 5297 5309 5322 5337 5353 5372 5394 5417
Wind_Speed
55 57 60 64 67 72 76 81 87 93 100 105 107 108 106 102 99 97 95 94 94 96 99 105 115 124 126 121 115 110 105 101 97 92 87 83 80 77 75 71 67 62 59
56 58 61 65 69 74 79 84 91 98 102 104 103 100 97 94 92 91 91 91 91 92 94 96 101 111 122 127 125 119 113 109 104 99 94 89 85 82 79 76 72 67 63
56 59 63 67 71 76 82 88 95 100 101 99 96 92 89 86 84 83 82 82 84 87 90 93 96 100 108 119 126 126 121 115 111 107 101 95 91 86 83 80 77 72 67
57 61 64 68 73 79 85 92 97 98 96 93 89 84 80 78 76 75 73 72 72 74 79 86 93 97 100 107 116 124 126 122 117 113 108 102 96 92 87 84 81 77 72
59 62 66 71 76 82 88 94 97 95 91 88 83 77 74 73 71 70 68 65 63 65 68 75 84 93 98 100 105 114 122 125 123 118 114 109 103 97 92 88 84 81 77
62 65 69 73 79 85 91 95 94 91 87 84 79 74 71 69 67 64 63 60 58 59 62 66 73 84 94 99 101 106 114 121 124 124 120 115 109 103 97 93 89 85 81
65 67 71 76 81 87 92 93 91 86 83 80 77 72 67 64 61 58 58 57 55 54 57 62 66 74 86 97 100 102 109 118 124 126 125 120 114 109 103 98 93 89 85
67 70 73 78 84 89 91 90 87 83 80 77 76 73 67 58 53 52 53 53 52 50 51 56 63 69 78 91 99 102 107 115 122 127 128 124 119 114 108 103 98 93 89
70 72 76 80 86 89 89 87 84 81 77 74 74 73 69 61 53 45 44 46 48 46 43 47 57 66 73 83 95 101 105 112 120 125 128 127 123 119 113 108 103 98 93
72 74 77 82 86 88 87 84 80 78 76 73 70 69 66 63 58 49 39 39 42 42 38 37 46 61 70 79 90 99 104 109 117 123 127 128 127 123 117 112 107 102 97
74 76 79 83 86 87 84 80 78 76 74 73 69 66 62 58 56 54 45 36 34 36 36 31 34 50 66 75 85 95 102 107 115 123 127 129 129 126 122 117 112 107 102
75 77 80 83 85 84 81 78 75 73 72 70 68 65 61 57 53 50 46 38 32 29 30 28 26 37 56 70 81 91 99 105 113 121 128 131 131 129 126 121 116 111 106
76 78 81 83 84 82 78 75 73 71 70 68 65 63 60 56 54 51 47 39 31 26 26 25 24 29 44 62 75 86 95 103 110 118 126 131 132 131 128 124 119 114 109
76 78 80 82 82 80 76 73 71 70 68 66 63 61 58 55 53 51 47 41 31 23 23 23 23 25 36 52 67 80 90 99 106 114 123 130 133 132 129 125 121 117 112
77 78 80 82 81 78 74 71 69 68 66 64 61 58 56 54 52 50 46 42 34 24 19 22 22 23 29 43 58 73 83 91 100 108 116 124 130 132 130 127 124 120 115
77 78 79 81 80 77 73 69 68 66 64 62 59 56 54 52 51 48 45 41 35 27 18 19 22 23 26 36 50 65 76 84 92 100 108 117 124 130 130 129 126 122 117
76 77 78 79 78 76 71 68 66 65 63 60 57 54 53 51 50 47 44 41 36 30 21 17 21 22 25 32 43 57 69 76 83 92 100 109 117 125 130 130 128 125 120
75 76 77 78 77 74 70 67 65 64 61 58 54 52 51 49 48 46 43 40 36 31 24 17 19 21 23 28 38 51 62 70 75 83 92 101 110 118 126 129 129 126 122
75 75 76 77 76 73 69 66 64 63 60 57 53 50 48 47 46 45 43 39 35 31 26 19 17 20 21 25 34 46 56 63 68 74 83 93 102 111 119 126 129 128 124
74 74 74 76 75 72 68 65 63 62 59 56 52 49 47 45 44 44 42 39 35 31 27 21 17 17 19 22 30 41 51 58 63 67 75 84 93 102 111 120 126 127 125
73 73 73 74 74 71 67 64 62 61 59 56 52 48 45 43 42 42 41 38 34 30 26 22 18 16 17 20 27 37 46 54 58 62 68 76 84 94 104 113 121 126 125
72 72 72 72 72 70 66 63 61 60 59 56 52 47 44 42 41 40 40 38 35 31 27 23 18 15 15 17 25 34 43 50 54 58 62 68 76 85 95 105 115 121 124
70 71 70 70 70 69 65 61 59 59 58 55 52 48 43 41 39 38 38 37 35 31 27 23 18 15 13 15 23 32 41 47 51 55 57 61 69 76 86 97 107 117 122
69 69 69 68 68 67 64 60 57 57 56 55 52 48 43 40 38 37 36 36 34 32 28 23 18 14 12 14 22 31 39 45 49 51 54 55 62 69 79 89 100 110 117
67 68 68 66 66 66 63 59 56 55 54 53 51 49 44 39 37 36 35 34 33 32 28 23 17 13 10 13 20 29 37 43 47 49 51 52 56 62 72 82 92 103 111
66 66 66 65 64 64 62 59 56 54 53 51 50 48 45 39 36 34 34 33 32 30 27 23 17 11 8 12 20 28 36 41 45 47 49 50 52 57 64 75 85 96 105
Wind_Direction
312 312 312 312 312 312 312 311 310 309 307 305 303 299 295 291 286 281 276 271 266 261 256 251 245 240 236 233 230 229 228 227 226 224 223 223 222 221 221 222 222 222 221
314 313 313 314 314 314 313 312 311 311 309 307 304 301 297 293 288 283 277 272 266 261 255 250 245 240 236 233 229 227 226 225 225 223 222 221 221 220 219 220 220 220 220
317 316 316 316 316 315 315 314 314 314 312 310 307 304 300 296 292 287 281 275 268 262 255 249 244 240 236 233 229 226 223 223 223 222 221 220 219 219 218 218 219 219 219
320 319 318 318 318 317 317 318 318 317 315 313 310 307 304 300 296 291 286 279 272 264 256 249 243 239 235 232 229 226 223 221 221 221 220 219 218 218 217 217 217 217 218
324 322 321 320 320 320 321 321 321 320 318 316 314 311 308 304 299 294 289 283 275 267 258 249 242 237 234 231 227 225 222 220 219 219 218 218 217 217 216 216 215 216 216
327 325 324 323 323 324 325 325 324 323 321 319 318 316 313 309 304 298 292 286 278 269 260 251 242 236 231 228 226 222 220 219 218 217 217 216 216 215 215 215 214 214 214
329 327 326 326 327 328 328 328 327 325 324 322 321 319 317 313 308 302 296 291 283 273 262 252 243 235 229 226 224 221 218 216 215 215 215 215 214 214 214 214 213 213 213
331 330 329 329 330 331 331 330 329 328 327 326 324 323 322 318 312 307 300 296 290 281 267 253 242 235 229 224 221 219 216 214 213 213 214 213 213 213 213 213 213 212 211
333 332 331 332 333 334 333 332 331 330 330 329 327 326 325 324 319 314 305 300 296 292 279 257 241 232 227 222 218 217 215 213 212 212 212 212 212 212 212 212 212 211 210
335 334 333 334 335 336 335 333 332 332 332 332 331 330 328 327 325 323 315 305 300 298 290 268 242 229 224 221 217 214 213 212 210 210 211 211 211 211 211 211 211 211 210
336 336 335 336 337 338 337 335 334 334 334 334 334 333 332 330 328 326 324 314 303 299 296 282 252 230 222 219 216 213 212 211 210 209 209 209 210 210 210 210 210 210 209
337 337 337 338 339 339 338 336 336 336 336 336 336 335 335 334 332 329 327 322 310 299 294 287 263 235 222 217 215 212 211 210 210 210 209 208 208 209 209 209 209 209 209
339 339 339 340 341 340 339 338 337 337 337 337 337 337 337 338 336 334 331 327 317 303 292 286 271 243 225 218 215 212 210 210 210 210 209 208 207 207 208 208 208 208 208
339 340 340 341 342 342 341 339 339 339 338 339 339 339 340 340 340 338 335 331 325 308 290 282 273 252 231 221 216 213 211 210 210 211 210 208 207 206 207 207 208 208 208
340 340 341 343 343 343 342 341 340 340 340 340 340 340 342 343 343 341 338 335 331 321 293 279 272 257 238 225 219 214 211 211 211 211 211 209 207 206 206 206 207 207 207
340 341 342 344 344 344 343 343 342 342 341 340 341 342 343 344 344 343 341 338 333 328 309 278 271 261 244 228 221 216 212 211 211 212 211 211 209 207 206 206 206 206 206
340 341 342 344 345 345 344 344 343 343 343 342 341 342 343 344 345 345 343 340 335 330 321 289 274 265 249 232 222 217 213 211 211 212 212 211 210 209 207 206 205 205 206
340 341 342 345 346 346 345 345 345 345 344 343 342 342 344 345 346 346 345 342 339 333 326 306 279 268 254 236 223 217 213 212 211 211 212 212 211 210 208 206 205 205 205
339 341 343 345 347 347 346 346 346 346 346 345 343 343 344 345 347 347 346 344 341 336 330 317 291 273 257 239 223 216 212 211 210 211 212 212 212 211 210 207 205 204 204
339 341 343 345 347 347 347 346 346 347 347 346 344 344 344 345 347 348 347 345 343 338 332 322 302 279 259 238 222 214 210 209 209 209 211 212 213 212 211 209 206 204 203
338 340 343 345 347 348 347 347 346 347 348 348 347 345 345 346 347 348 349 347 344 341 335 327 310 286 262 236 218 211 208 206 206 207 209 210 212 212 211 210 207 205 203
337 339 342 345 347 349 348 347 346 347 349 349 349 346 345 347 348 348 348 348 345 342 337 329 316 294 265 235 215 207 205 204 203 205 207 209 211 212 212 210 208 206 204
336 338 342 344 347 349 348 348 347 347 349 350 350 348 346 347 348 349 349 349 347 342 338 333 320 299 268 233 212 204 202 201 201 202 204 207 209 211 211 211 209 207 204
334 337 341 344 347 349 349 348 348 348 349 350 350 350 348 347 348 350 350 349 348 345 340 335 325 304 270 232 210 201 199 198 199 200 201 204 208 210 211 210 210 208 205
332 336 339 343 346 348 349 349 349 349 349 350 350 351 350 348 348 350 351 351 350 347 344 339 330 309 271 229 207 199 196 197 197 198 198 201 205 208 209 209 209 208 206
330 334 338 342 346 348 349 349 349 350 350 351 351 351 351 350 349 350 353 354 353 350 347 343 336 317 271 225 204 196 194 195 196 196 197 199 203 205 207 207 207 207 206